STARLINK-34682, 64854

Orbit data source: Space-Track

STARLINK-34682, 64854 is a payload satellite owned by SpaceX/Seattle (US) in SSO that was launched on Sat, 19 Jul 2025 UTC via an FALCON 9 launch vehicle from the Air Force Western Test Range (AFWTR). Payload-class satellites include a variety of spacecraft equipped with specific instruments for various scientific and technological missions. These include communications satellites like Starlink; space stations such as the ISS; scientific satellites like the Hubble; Earth observation satellites from companies like Planet Labs, Umbra, and HawkEye 360; GPS; miniature CubeSats for education and research; and military/defense satellites.

Loading next visibility...
Identifier
64854, 2025-152N
Orbit
SSO
Country
Flag of USUS
Related business
Manufacturer
SpaceX/Seattle
Mission
Operational Commercial Communications
Bus & Motor
STARLINK V2MO, Unknown motor
Mass
575 kg wet, ~530 kg dry
Launch date (UTC)
2025-07-19 (9 months ago)
Launch vehicle
FALCON 9
Launch site
Air Force Western Test Range (AFWTR)
Object type
Payload
Rocket body
Debris
Shape & HBR
Box + 2 Pan, 17.7 m
Radar Cross Section
36.964 m², Large (>1 m²)

Expand to show TLE details & history
Last TLE update: 19 hours ago

TLE from 19 hours ago
0 STARLINK-34682
1 64854U 25152N   26094.55597486  .00001393  00000-0  10074-3 0  9993
2 64854  97.6028 311.0675 0002184  81.8963 278.2512 15.05647746 39312
Epoch: 2026-04-04T13:20Z
TLE epoch observation values (Epoch: 2026-04-04T13:20:36.227Z)
Latitude
Longitude
-81.95751°
Altitude
552.366 km
Speed
7.586 km/s
True Right ascension
20h 44m 16s
True Declination
0° 00' 00"
Sunlit
Object was in daylight at epoch
Visualization orbit readout
Latitude
Unknown
Longitude
Unknown
Altitude
Unknown
Speed
Unknown
Apparent Right ascension
Unknown
Apparent Declination
Unknown
Sunlit
N/A
Visualization observer readout
Local Sidereal Time
14:35:31
Azimuth
Unknown
Elevation
Unknown
Doppler factor
Unknown
Orbital elements
Apogee altitude
548.024 km
Perigee altitude
544.999 km
Semi-major axis
6,924.649 km
Eccentricity
0.00022
Inclination
97.6028°
RAAN
311.0675°
Arg. of periapsis
81.8963°
True anomaly
278.22643°
Mean anomaly
278.2512°
Eccentric anomaly
278.23882°
Mean motion
3.76657 °/min
Orbital period
95.58 mins
BSTAR
0.00010074
Loading maneuver chart data...
Computing Atmospheric mass density...
Loading historical data...
Loading historical data...
Loading historical data...
Loading historical data...
Loading historical data...
Loading historical data...
Loading historical data...

Documentation

Showing up to 5 results
|